Home   Weather   City of Mount Pleasant   Past weeks
Flag for USA

Past Weather in City of Mount Pleasant, Michigan, USA — Yesterday and Last 2 Weeks

Now
51 °F

Clear.


Feels Like: 51 °F
Forecast: 60 / 47 °F
Wind: No wind

Location: Roben-Hood Airport

Current Time: Oct 20, 2019 at 8:49:22 pm

Latest Report: Oct 20, 2019 at 7:58 pm


Visibility: 10 mi

Pressure: 29.95 "Hg

Humidity: 69%

Dew Point: 41 °F

Location of City of Mount PleasantLocation

Past Weather in City of Mount Pleasant — Graph

°F

City of Mount Pleasant Temperature Yesterday

Maximum temperature yesterday: 59 °F (at 4:35 pm)
Minimum temperature yesterday: 32 °F (at 4:56 am)
Average temperature yesterday: 45 °F

High & Low Weather Summary for the Past Weeks

 TemperatureHumidityPressure
High70 °F (Oct 10, 4:37 pm)100% (Oct 15, 8:58 am)30.30 "Hg (Oct 15, 8:58 am)
Low30 °F (Oct 18, 7:56 am)32% (Oct 7, 4:36 pm)29.52 "Hg (Oct 16, 8:00 am)
Average48 °F80%29.97 "Hg
* Reported Oct 5 7:36 pm — Oct 20 7:36 pm, City of Mount Pleasant. Weather by CustomWeather, © 2019

Note: Actual official high and low records may vary slightly from our data, if they occured in-between our weather recording intervals... More about our weather records

Advertising

City of Mount Pleasant Weather History for the Previous 24 Hours

Scroll right to see more
 ConditionsComfort  
Time TempWeatherWind HumidityBarometerVisibility
7:36 pm
Sun, Oct 20
54 °FClear.No wind62%29.94 "Hg10 mi
6:57 pm59 °FClear.No wind46%29.93 "Hg10 mi
6:35 pm62 °FSunny.3 mph38%29.93 "Hg10 mi
6:16 pm63 °FSunny.3 mph35%29.92 "Hg10 mi
5:55 pm64 °FSunny.5 mph33%29.92 "Hg10 mi
5:39 pm65 °FSunny.3 mph35%29.91 "Hg10 mi
4:55 pm65 °FSunny.6 mph32%29.91 "Hg10 mi
4:38 pm65 °FSunny.7 mph33%29.90 "Hg10 mi
4:15 pm65 °FSunny.6 mph37%29.90 "Hg10 mi
3:56 pm65 °FSunny.5 mph38%29.90 "Hg10 mi
3:36 pm65 °FSunny.6 mph35%29.89 "Hg10 mi
3:19 pm65 °FSunny.6 mph34%29.89 "Hg10 mi
2:55 pm64 °FSunny.3 mph39%29.89 "Hg10 mi
2:35 pm64 °FSunny.8 mph42%29.89 "Hg10 mi
2:18 pm64 °FSunny.8 mph48%29.89 "Hg10 mi
1:55 pm63 °FSunny.7 mph51%29.90 "Hg10 mi
1:36 pm62 °FSunny.No wind56%29.90 "Hg10 mi
1:17 pm61 °FSunny.5 mph61%29.90 "Hg10 mi
1:00 pm61 °FSunny.3 mph67%29.90 "Hg10 mi
12:36 pm61 °FSunny.3 mph70%29.90 "Hg10 mi
12:16 pm60 °FScattered clouds.8 mph72%29.90 "Hg10 mi
11:59 am60 °FScattered clouds.13 mph74%29.90 "Hg10 mi
11:36 am59 °FSunny.5 mph78%29.89 "Hg10 mi
11:15 am58 °FSunny.No wind81%29.89 "Hg10 mi
10:40 am53 °FSunny.3 mph94%29.87 "Hg10 mi
10:35 am52 °FSunny.No wind96%29.87 "Hg10 mi
9:56 am49 °FFog.No wind98%29.86 "Hg3 mi
9:39 am49 °FFog.No wind97%29.86 "Hg4 mi
9:15 am48 °FFog.7 mph97%29.86 "Hg4 mi
8:55 am47 °FFog.No wind97%29.84 "Hg3 mi
8:16 am47 °FFog.No wind97%29.82 "Hg4 mi
7:55 am47 °FFog.No wind97%29.81 "Hg5 mi
7:20 am47 °FOvercast.3 mph97%29.81 "Hg7 mi
6:55 am47 °FFog.No wind97%29.80 "Hg4 mi
6:36 am47 °FFog.No wind97%29.79 "Hg4 mi
5:55 am48 °FMostly cloudy.5 mph97%29.78 "Hg7 mi
5:35 am47 °FFog.No wind97%29.77 "Hg5 mi
5:18 am47 °FOvercast.No wind96%29.77 "Hg7 mi
4:56 am48 °FOvercast.No wind95%29.77 "Hg10 mi
4:35 am48 °FOvercast.No wind95%29.76 "Hg10 mi
4:16 am48 °FLight rain. Mostly cloudy.5 mph94%29.77 "Hg10 mi
3:55 am48 °FLight rain. Overcast.5 mph92%29.77 "Hg10 mi
3:36 am49 °FLight rain. Overcast.5 mph90%29.78 "Hg10 mi
3:16 am49 °FLight rain. Overcast.5 mph89%29.78 "Hg10 mi
2:58 am49 °FLight rain. Overcast.6 mph89%29.77 "Hg10 mi
2:36 am48 °FLight rain. Mostly cloudy.5 mph89%29.77 "Hg10 mi
1:57 am48 °FMostly cloudy.5 mph88%29.76 "Hg10 mi
1:35 am46 °FLight rain. Overcast.5 mph93%29.76 "Hg10 mi
1:16 am47 °FLight rain. Overcast.No wind93%29.77 "Hg10 mi
12:40 am47 °FOvercast.No wind91%29.77 "Hg10 mi
12:35 am47 °FOvercast.No wind90%29.77 "Hg10 mi
12:15 am46 °FOvercast.No wind92%29.77 "Hg10 mi
11:55 pm
Sat, Oct 19
46 °FOvercast.No wind91%29.77 "Hg10 mi
11:15 pm46 °FClear.No wind89%29.78 "Hg10 mi
10:55 pm47 °FClear.No wind87%29.78 "Hg10 mi
10:38 pm47 °FClear.No wind87%29.78 "Hg10 mi
10:16 pm46 °FClear.No wind86%29.78 "Hg10 mi
9:55 pm48 °FClear.No wind82%29.79 "Hg10 mi
9:36 pm49 °FClear.3 mph83%29.79 "Hg10 mi
9:19 pm47 °FClear.3 mph87%29.79 "Hg10 mi
8:35 pm51 °FClear.No wind76%29.80 "Hg10 mi
Weather by CustomWeather, © 2019

See weather overview